Regional Weather Roundup
Issued by NWS Sterling, VA

Home | Current Version | Previous Version | Text Only | Print | Product List | Glossary On
Versions: 1 2 3 4 5 6 7 8 9 10 11 12 13 14 15 16 17 18 19 20 21 22 23 24 25 26 27 28 29 30 31 32 33 34 35 36 37 38 39 40 41 42 43 44 45 46 47 48 49
912
ASUS41 KLWX 072310
RWRLWX

REGIONAL WEATHER ROUNDUP
NATIONAL WEATHER SERVICE BALTIMORE MD/WASHINGTON DC
600 PM EST SUN FEB 07 2016

Note: "FAIR" indicates few or no clouds below 12,000 feet
with no significant weather and/or obstructions to visibility.
 TC=TEMPERATURE CELSIUS

 * =Non NWS site. Station does not report precipitation (e.g. rain,
    snow, etc.), thunder, or fog.

DCZ001-MDZ009-015-VAZ040>042-051-053>054-080000-
WASHINGTON METRO

CITY           SKY/WX    TMP DP  RH WIND       PRES   REMARKS
WASHINGTON NAT CLOUDY    43  22  43 NE8       29.98F
DULLES         MOCLDY    42  22  44 N8        29.96F
ANDREWS AFB    CLOUDY    40  21  47 NE7       29.95F
FT BELVOIR     FAIR      42  17  36 VRB3      29.97F
QUANTICO       FAIR      43  26  51 NE7       29.98F
COLLEGE PARK*  FAIR      43  18  36 CALM      29.96F
LEESBURG*      FAIR      43  27  52 N3        29.97F
MANASSAS*      CLEAR     41  25  52 VRB6      29.96F
GAITHERSBURG*  MOCLDY    39  19  45 CALM      29.99F

$$

MDZ006>007-011-014-080000-
BALTIMORE METRO

CITY           SKY/WX    TMP DP  RH WIND       PRES   REMARKS
BWI AIRPORT    CLOUDY    41  20  43 NE6       29.96F
MD SCIENCE CTR   N/A     43  21  41 MISG      29.98S
MARTIN STATE   MOCLDY    41  27  56 CALM      30.00S
ANNAPOLIS      CLOUDY    40  27  59 N6        29.96F
FORT MEADE*    CLOUDY    37  21  52 CALM      29.99F

$$

MDZ012-015-019>023-080000-
MARYLAND EASTERN SHORE

CITY           SKY/WX    TMP DP  RH WIND       PRES   REMARKS
OCEAN CITY     CLOUDY    41  34  76 NE16G23   29.93F
SALISBURY      CLOUDY    40  26  57 NE9       29.93F
BAY BRIDGE AP*   N/A     39  27  60 CALM      29.97F
CAMBRIDGE*     CLOUDY    41  25  52 N3        29.94F
EASTON*        CLOUDY    39  27  60 NE6       30.00F

$$

MDZ017>025-080000-
SOUTHERN MARYLAND

CITY           SKY/WX    TMP DP  RH WIND       PRES   REMARKS
PATUXENT RIVER CLOUDY    39  30  70 N8        29.95F
ST INIGOES     CLOUDY    40  29  64 VRB3      29.93F
LEONARDTOWN*   CLOUDY    37  28  70 CALM      29.96F

$$

MDZ003>005-080000-
NORTH CENTRAL MARYLAND

CITY           SKY/WX    TMP DP  RH WIND       PRES   REMARKS
FREDERICK*     CLEAR     39  27  60 CALM      30.01F
HAGERSTOWN APT CLEAR     40  22  48 CALM      29.96F
WESTMINSTER*   MOCLDY    39  28  65 CALM      29.96F

$$

MDZ501>502-080000-
WESTERN MARYLAND

CITY           SKY/WX    TMP DP  RH WIND       PRES   REMARKS
OAKLAND*       CLEAR     36  21  55 CALM      29.90S
CUMBERLAND*    CLEAR     43  23  45 S5        29.99R

$$

VAZ025>031-080000-
SHENANDOAH VALLEY

CITY           SKY/WX    TMP DP  RH WIND       PRES   REMARKS
WINCHESTER*    FAIR      37  27  65 CALM      29.96F
FRONT ROYAL*   FAIR      37  23  56 CALM      29.94F
LURAY*         FAIR      37  25  60 N7        29.94F
NEW MARKET*    FAIR      39  25  58 N5        29.93F
STAUNTON*      FAIR      42  27  54 N3        29.95S
WAYNESBORO*    FAIR      38  24  56 CALM      29.93S

$$

WVZ021-048>050-054>055-080000-
EASTERN WEST VIRGINIA PANHANDLE

CITY           SKY/WX    TMP DP  RH WIND       PRES   REMARKS
MARTINSBURG    FAIR      39  21  48 CALM      29.96F
PETERSBURG*    FAIR      38  29  69 CALM      29.95S

$$

VAZ036>039-050-080000-
CENTRAL FOOTHILLS

CITY           SKY/WX    TMP DP  RH WIND       PRES   REMARKS
CHARLOTTESVILL FAIR      43  23  45 NE6       29.94F
CULPEPER*      FAIR      39  24  53 CALM      29.97S
ORANGE*        FAIR      41  27  56 CALM      29.97S
GORDONSVILLE*  FAIR      40  25  54 CALM      29.94S
WARRENTON*     FAIR      41  26  54 CALM      29.95F

$$

VAZ055>057-080000-
NORTH AND CENTRAL PIEDMONT

CITY           SKY/WX    TMP DP  RH WIND       PRES   REMARKS
FREDERICKSBRG* FAIR      42  21  43 N6        29.95F
STAFFORD*      FAIR      41  17  37 CALM      30.00S

$$

NCZ024-NYZ072-PAZ021-071-VAZ022-071-080000-
OTHER REGIONAL OBSERVATIONS

CITY           SKY/WX    TMP DP  RH WIND       PRES   REMARKS
NEW YORK CITY  MOCLDY    42  23  46 E8        30.04F
PHILADELPHIA   MOCLDY    41  23  48 E6        30.00S
PITTSBURGH     CLOUDY    48  20  32 SW7       29.90F
ROANOKE        MOCLDY    44  24  45 E3        29.93F
RICHMOND       CLOUDY    41  24  51 N9        29.91F
RALEIGH        CLOUDY    43  23  45 VRB7G18   29.88F

$$

ANZ530>537-080000-
MARINE OBSERVATIONS

STATION/POSITION TIME  TEMP    WIND        PRES
                       AIR SEA DIR/SP/G
                 (UTC) (F)     (DEG/KT/KT) (MB)
THOMAS PT LIGHT  NOT AVBL
BALT KEY BRIDGE  2200   43      40/  5/  6 1015.6F
COVE POINT       2200   39      20/ 12/ 17 1015.0F
LEWISETTA        2200   41 43   10/  8/ 12 1014.1F
SOLOMONS ISLAND  2200   40 41  360/  9/ 12   N/A

$$





USA.gov is the U.S. government's official web portal to all federal, state and local government web resources and services.